VA3PPY Weather Reports


Display with metric or nautical units.
time (UTC)temp
F
wind
direction
speed
MPH
gust
MPH
rain 1hr
in
rain 24hr
in
rain mn
in
humidity
%
barometer
mb
20260903071519 67 146 0.0 0.0 0.00 0.31 0.01 97 1010.9
20260903070020 67 146 0.0 0.0 0.00 0.31 0.01 97 1010.9
20260903064516 68 146 0.0 0.0 0.00 0.31 0.01 97 1011.0
20260903063016 68 146 0.0 0.0 0.01 0.31 0.01 97 1011.2
20260903061517 68 146 0.0 2.0 0.01 0.31 0.01 97 1011.3
20260903060016 68 146 0.0 2.0 0.01 0.31 0.01 96 1011.4
20260903054522 69 146 0.0 3.0 0.01 0.31 0.01 97 1011.6
20260903053016 69 146 0.0 2.0 0.00 0.30 0.00 97 1011.7
20260903051517 69 146 0.0 1.0 0.00 0.30 0.00 97 1011.6
20260903050016 69 146 0.0 1.0 0.00 0.30 0.00 97 1011.2
20260903044516 69 146 0.0 3.0 0.00 0.30 0.00 97 1011.0
20260903043017 69 142 1.0 4.0 0.00 0.30 0.00 96 1011.0
20260903041518 69 142 0.0 3.0 0.00 0.30 0.00 96 1010.6
20260903040017 69 142 0.0 0.0 0.00 0.30 0.00 96 1010.2
20260903034517 69 142 0.0 0.0 0.00 0.30 0.30 96 1010.3
20260903033029 69 142 0.0 0.0 0.00 0.30 0.30 96 1010.5
20260903031518 69 142 0.0 0.0 0.00 0.30 0.30 96 1010.0
20260903030018 69 142 0.0 0.0 0.00 0.30 0.30 96 1009.8
20260903024517 69 142 0.0 3.0 0.00 0.30 0.30 96 1010.5
20260903023019 70 142 0.0 3.0 0.00 0.30 0.30 96 1010.8
20260903021525 70 129 0.0 8.0 0.03 0.30 0.30 96 1010.8
20260903020017 70 151 1.0 3.0 0.03 0.30 0.30 96 1011.1
20260903014517 70 151 0.0 2.0 0.04 0.30 0.30 96 1010.9
20260903013017 70 151 0.0 7.0 0.15 0.28 0.28 96 1011.3
20260903011517 69 302 0.0 2.0 0.13 0.27 0.27 96 1010.7
20260903010017 70 302 0.0 1.0 0.13 0.27 0.27 95 1010.8
20260903004522 70 302 1.0 3.0 0.10 0.24 0.24 95 1010.8
20260903003018 70 302 0.0 0.0 0.00 0.14 0.14 95 1010.8
20260903001520 70 302 0.0 0.0 0.00 0.14 0.14 95 1010.5
20260903000018 70 302 0.0 0.0 0.01 0.14 0.14 95 1010.2
20260902234517 70 302 0.0 0.0 0.02 0.14 0.14 95 1010.2
20260902233018 70 302 0.0 0.0 0.02 0.14 0.14 94 1010.9
20260902231519 70 302 0.0 2.0 0.02 0.14 0.14 94 1011.0
20260902230018 70 302 0.0 4.0 0.01 0.13 0.13 94 1010.5
20260902224518 70 34 0.0 1.0 0.00 0.12 0.12 93 1011.1
20260902223019 71 34 0.0 0.0 0.00 0.12 0.12 93 1010.7
20260902221519 71 34 0.0 2.0 0.12 0.12 0.12 93 1010.0
20260902220018 70 34 0.0 1.0 0.12 0.12 0.12 93 1010.3
20260902214526 69 34 0.0 3.0 0.12 0.12 0.12 92 1010.7
20260902213018 69 359 0.0 7.0 0.12 0.12 0.12 89 1009.8
20260902211519 70 309 3.0 13.0 0.00 0.00 0.00 86 1010.7
20260902210031 73 84 6.0 32.0 0.00 0.00 0.00 75 1010.6
20260902204519 88 133 0.0 1.0 0.00 0.00 0.00 71 1009.9
20260902203018 90 159 2.0 12.0 0.00 0.00 0.00 65 1009.1
20260902201550 91 355 1.0 5.0 0.00 0.00 0.00 66 1009.4
20260902200051 91 171 0.0 3.0 0.00 0.00 0.00 67 1009.5
20260902194551 90 136 1.0 6.0 0.00 0.00 0.00 70 1009.7
20260902193051 89 129 2.0 8.0 0.00 0.00 0.00 70 1010.0
20260902191555 90 297 1.0 6.0 0.00 0.00 0.00 72 1010.2
20260902190055 90 167 2.0 8.0 0.00 0.00 0.00 71 1010.2
20260902184609 89 193 1.0 5.0 0.00 0.00 0.00 72 1010.3
20260902183100 87 290 0.0 4.0 0.00 0.00 0.00 73 1010.4
20260902181551 87 290 1.0 3.0 0.00 0.00 0.00 73 1010.5
20260902180051 86 290 0.0 3.0 0.00 0.00 0.00 74 1010.6
20260902174551 86 290 0.0 3.0 0.00 0.00 0.00 73 1011.0
20260902173051 86 290 0.0 4.0 0.00 0.00 0.00 73 1011.5
20260902171551 86 290 0.0 3.0 0.00 0.00 0.00 74 1011.9
20260902170053 82 290 1.0 3.0 0.00 0.00 0.00 78 1012.3
20260902164551 82 274 1.0 3.0 0.00 0.00 0.00 78 1012.6
20260902163058 85 274 0.0 3.0 0.00 0.00 0.00 73 1012.2
20260902161551 85 158 0.0 4.0 0.00 0.00 0.00 74 1012.4
20260902160054 84 154 0.0 4.0 0.00 0.00 0.00 78 1012.3
20260902154551 84 240 0.0 2.0 0.00 0.00 0.00 80 1012.3
20260902153052 83 240 0.0 2.0 0.00 0.00 0.00 80 1012.3
20260902151600 84 290 0.0 4.0 0.00 0.00 0.00 81 1012.1
20260902150052 83 131 0.0 6.0 0.00 0.00 0.00 82 1011.9
20260902144551 82 143 1.0 5.0 0.00 0.00 0.00 85 1012.1
20260902143056 81 163 0.0 4.0 0.00 0.00 0.00 87 1012.2
20260902141551 80 155 0.0 8.0 0.00 0.00 0.00 89 1012.2
20260902140052 79 142 1.0 4.0 0.00 0.00 0.00 90 1012.2
20260902134604 78 164 0.0 6.0 0.00 0.00 0.00 92 1012.1
20260902133056 77 162 1.0 4.0 0.00 0.00 0.00 92 1012.1
20260902131552 77 162 0.0 3.0 0.00 0.00 0.00 93 1012.0
20260902130057 76 162 1.0 4.0 0.00 0.00 0.00 93 1012.1
20260902124556 76 162 0.0 1.0 0.00 0.00 0.00 93 1011.7
20260902123052 76 162 0.0 3.0 0.00 0.00 0.00 93 1011.7
20260902121556 76 162 0.0 3.0 0.00 0.00 0.00 92 1011.8
20260902120052 76 162 1.0 4.0 0.00 0.00 0.00 92 1011.6
20260902114557 76 162 1.0 4.0 0.00 0.00 0.00 92 1011.8
20260902113058 76 162 0.0 4.0 0.00 0.00 0.00 91 1012.0
20260902111552 75 165 0.0 0.0 0.00 0.00 0.00 91 1011.9
20260902110052 75 165 0.0 0.0 0.00 0.00 0.00 91 1011.5
20260902104556 75 165 0.0 0.0 0.00 0.00 0.00 91 1011.4
20260902103102 75 165 0.0 0.0 0.00 0.00 0.00 90 1011.2
20260902101553 76 165 0.0 0.0 0.00 0.00 0.00 89 1010.9
20260902100107 76 165 0.0 2.0 0.00 0.00 0.00 89 1011.1
20260902094553 76 165 0.0 2.0 0.00 0.00 0.00 90 1011.1
20260902093053 75 165 0.0 3.0 0.00 0.00 0.00 91 1011.2
20260902091607 75 165 0.0 3.0 0.00 0.00 0.00 92 1011.2
20260902090053 75 161 0.0 2.0 0.00 0.00 0.00 92 1011.3
20260902084553 76 161 0.0 3.0 0.00 0.00 0.00 91 1011.2
20260902083053 76 161 0.0 5.0 0.00 0.00 0.00 92 1011.3
20260902081553 75 145 0.0 2.0 0.00 0.00 0.00 93 1011.1
20260902080106 75 145 1.0 3.0 0.00 0.00 0.00 93 1011.3
20260902074554 75 145 0.0 2.0 0.00 0.00 0.00 92 1011.2
20260902073103 75 145 0.0 4.0 0.00 0.00 0.00 92 1011.1